OPS 4682 DEB, 38367

Orbit data source: Space-Track

OPS 4682 DEB, 38367 is space debris in LEO originally from a launch on Sat, 03 Apr 1965 UTC launched from the Air Force Western Test Range (AFWTR). Debris objects in space refer to the collection of defunct objects orbiting the Earth. Examples of debris include non-operational satellites, rocket bodies, and fragments generated from explosions, collisions, or faulty payload assembly.

Loading next visibility...
Identifier
38367, 1965-027BU
Orbit
LEO
Country
Flag of USUS
Related business
Manufacturer
Unknown
Mission
Spacecraft
Bus & Motor
Unknown
Mass
Unknown
Launch date (UTC)
1965-04-03 (61 years ago)
Launch vehicle
Unknown
Launch site
Air Force Western Test Range (AFWTR)
Object type
Payload
Rocket body
Debris
Shape & HBR
Unknown shape, 0.1 m
Radar Cross Section
Small (<0.1 m²)

Expand to show TLE details & history
Last TLE update: 3 days ago

TLE from 3 days ago
0 OPS 4682 DEB
1 38367U 65027BU  26033.20665240  .00000301  00000-0  10213-2 0  9999
2 38367  90.2426   7.7454 0035587 127.4726 232.9640 12.96649216291381
Epoch: 2026-02-02T04:57Z
TLE epoch observation values (Epoch: 2026-02-02T04:57:34.767Z)
Latitude
0.00003°
Longitude
160.94528°
Altitude
1,294.592 km
Speed
7.201 km/s
True Right ascension
00h 30m 58s
True Declination
0° 00' 00"
Sunlit
Object was in daylight at epoch
Visualization orbit readout
Latitude
Unknown
Longitude
Unknown
Altitude
Unknown
Speed
Unknown
Apparent Right ascension
Unknown
Apparent Declination
Unknown
Sunlit
N/A
Visualization observer readout
Local Sidereal Time
10:24:00
Azimuth
Unknown
Elevation
Unknown
Doppler factor
Unknown
Orbital elements
Apogee altitude
1,299.601 km
Perigee altitude
1,245.15 km
Semi-major axis
7,650.512 km
Eccentricity
0.00356
Inclination
90.2426°
RAAN
7.7454°
Arg. of periapsis
127.4726°
True anomaly
232.63934°
Mean anomaly
232.964°
Eccentric anomaly
232.80159°
Mean motion
3.24345 °/min
Orbital period
110.99 mins
BSTAR
0.0010213
Loading maneuver chart data...
Computing Atmospheric mass density...
Loading historical data...
Loading historical data...
Loading historical data...
Loading historical data...
Loading historical data...
Loading historical data...
Loading historical data...

Documentation

Showing up to 5 results
|